Location: Agadir Mansour Mhndou
(31.2424°N, 8.7730°W)
Time: 05:28:44
(UTC+00:00)

COSMO-SKYMED 1 - Pass Details

Date: 16 October 2021
Orbit: 621 x 623 km, 97.9° (Epoch: 28 November)

Event Time Altitude Azimuth Distance (km) Brightness Sun altitude
Rises 18:42:07 0° 9° (N) 2,906 5.9 -9.3°
Reaches altitude 10° 18:44:19 10° 7° (N) 1,995 5.1 -9.8°
Maximum altitude 18:48:39 71° 284° (WNW) 659 2.9 -10.7°
Drops below altitude 10° 18:52:56 10° 200° (SSW) 1,982 5.5 -11.6°
Sets 18:55:07 0° 198° (SSW) 2,884 6.3 -12.1°
